Location: Prairie View Elementary School
(39.8322°N, 99.5698°W)
Time: 21:52:07
(UTC+00:00)

Lacrosse 5 rocket - Pass Details

Date: 08 December 2019
Orbit: 465 x 632 km, 57.0° (Epoch: 26 January)

Event Time Altitude Azimuth Distance (km) Brightness Sun altitude
Rises 01:13:38 0° 261° (W) 2,800 6.4 -22.4°
Reaches altitude 10° 01:16:25 10° 278° (W) 1,869 5.0 -22.9°
Maximum altitude 01:19:36 20° 327° (NNW) 1,293 3.4 -23.5°
Enters shadow 01:20:35 19° 347° (NNW) 1,346 3.3 -23.7°
